Hourly Data Report for July 28, 2021

ALGONQUIN PARK EAST GATE
ONTARIO
Current Station Operator: ECCC - MSC

45°32'00.000" N
78°16'00.000" W
397.00 m
6080192
71581
TNK

Download Data

Hourly Data (July 2021)
Hourly Data Report for July 28, 2021
TIME
LST
Temp Definition
°C
Dew Point Definition
°C
Rel Hum Definition
%
Precip. Amount Definition
mm

Wind Dir Definition
10's deg

Wind Spd Definition
km/h
Visibility Definition
km
Stn Press Definition
kPa
Hmdx Definition


Wind Chill Definition


Weather Definition


00:00 10.9 10.6 98 0.0   0   97.12     LegendNANA
01:00 9.7 9.4 98 0.0   0   97.13     LegendNANA
02:00 9.5 9.3 98 0.0   0   97.14     LegendNANA
03:00 9.5 9.4 99 0.0   0   97.14     LegendNANA
04:00 9.3 9.1 99 0.0 0 1   97.17     LegendNANA
05:00 9.1 8.9 99 0.0   0   97.22     LegendNANA
06:00 9.4 9.2 99 0.0   0   97.26     LegendNANA
07:00 10.6 10.3 98 0.0 24 1   97.30     LegendNANA
08:00 13.9 13.1 95 0.0   0   97.29     LegendNANA
09:00 18.3 14.0 76 0.0 16 2   97.25     LegendNANA
10:00 20.3 10.1 52 0.0 14 5   97.25     LegendNANA
11:00 20.8 8.3 44 0.0 21 4   97.22     LegendNANA
12:00 20.9 9.9 49 0.0 26 1   97.18     LegendNANA
13:00 22.2 7.6 39 0.0 35 3   97.16     LegendNANA
14:00 22.9 7.8 38 0.0 28 4   97.16     LegendNANA
15:00 22.4 7.8 39 0.0 24 4   97.09     LegendNANA
16:00 22.4 9.3 43 0.0 23 1   97.04     LegendNANA
17:00 22.5 11.3 49 0.0 0 1   96.98     LegendNANA
18:00 20.8 13.5 63 0.0 7 2   96.92     LegendNANA
19:00 18.4 13.1 71 0.0   0   96.92     LegendNANA
20:00 17.3 14.6 84 0.0   0   96.92     LegendNANA
21:00 15.7 14.2 91 0.0 10 1   96.93     LegendNANA
22:00 14.9 13.6 92 0.0   0   96.84     LegendNANA
23:00 14.2 13.2 94 0.0   0   96.81     LegendNANA

Notes on Data Quality.

Legend

  • E = Estimated
  • M = Missing
  • NA = Not Available*
  • [empty] = Indicates an unobserved value
Date modified: